Temperature
6 5 5 6 6 7 6 6 6 6 6 6 5 5 5 5 5 4 5 5 6 6 7 7 7 7 7 7 7 7 7 7 7 7 7 7 7 7 7 7 7 7 8 8
5 5 6 6 6 6 6 6 5 6 6 6 5 4 5 4 4 4 5 5 5 5 6 6 6 6 6 6 6 7 7 7 7 7 7 7 7 7 7 7 7 7 7 7
5 5 6 6 6 6 6 5 5 5 5 5 4 4 4 4 4 4 4 5 5 5 5 5 5 6 6 6 6 6 6 6 6 6 6 6 6 6 6 6 6 6 7 6
4 5 6 6 5 6 5 6 5 5 4 4 4 4 4 3 3 3 3 4 4 4 4 4 5 5 5 5 5 5 5 6 6 6 6 6 5 5 6 6 6 6 6 6
4 5 5 5 5 5 5 5 4 4 4 3 3 3 4 3 3 3 3 3 3 4 4 4 4 4 5 5 5 5 5 5 5 5 5 5 5 5 5 5 5 5 5 5
4 4 5 5 5 5 4 4 3 2 2 3 3 3 3 2 3 3 2 3 3 3 3 3 4 4 4 4 4 4 4 4 4 4 4 4 4 4 4 5 5 5 4 4
4 4 4 5 5 4 4 3 2 2 2 2 3 3 3 2 2 2 2 2 2 3 3 3 3 3 4 4 4 4 4 4 4 4 4 4 4 4 4 4 4 4 4 4
3 3 4 4 4 4 4 3 3 3 2 2 2 2 2 2 2 2 2 2 2 2 2 2 2 3 3 3 3 3 3 3 3 3 3 3 3 3 3 3 3 3 3 3
2 3 4 4 4 4 3 2 2 1 0 1 1 1 1 2 1 1 1 1 1 1 1 2 2 2 2 2 2 3 3 3 3 3 3 3 3 2 2 2 3 3 3 3
2 2 3 3 3 3 3 2 1 1 2 2 2 1 2 1 1 1 0 0 1 1 1 1 1 2 2 2 2 2 2 2 2 2 2 2 2 2 2 2 2 2 2 2
2 1 2 2 2 2 2 1 1 0 1 1 1 2 2 1 1 0 -0 0 0 1 1 1 1 1 1 1 1 2 1 2 2 2 2 2 2 2 1 1 1 1 1 1
1 0 0 1 1 2 2 1 0 1 0 -0 0 2 1 0 -0 -0 -0 -0 0 0 0 0 0 0 0 1 1 1 1 1 1 1 1 1 1 1 1 1 1 1 1 1
0 -0 1 1 1 1 1 1 -0 -0 -1 -1 -0 1 1 -0 -0 -0 -1 -1 -1 -1 -0 -1 -1 -1 -0 -0 0 0 0 0 0 0 0 0 0 0 0 0 0 0 0 0
1 -1 0 1 1 0 -0 -0 -1 -1 -1 -1 -0 0 1 0 -1 -1 -1 -1 -1 -1 -1 -1 -1 -1 -1 -1 -0 -0 -0 -0 -0 -0 -0 -0 0 -0 -0 -0 -0 -0 -0 -0
-0 -1 -2 -1 -1 -1 -1 -0 -1 -1 -1 -0 -0 -0 0 -1 -1 -2 -2 -2 -2 -2 -2 -2 -2 -2 -1 -1 -1 -1 -1 -1 -1 -1 -1 -1 -1 -1 -1 -1 -1 -1 -1 -1
-2 -2 -2 -1 -1 -1 -1 -1 -1 -1 -1 -1 -1 -1 -1 -2 -2 -2 -2 -2 -2 -2 -2 -2 -2 -2 -2 -2 -2 -2 -1 -1 -1 -1 -1 -1 -1 -1 -1 -1 -1 -1 -1 -1
-3 -3 -2 -1 -2 -1 -1 -1 -1 -2 -2 -2 -1 -1 -2 -3 -3 -3 -3 -3 -3 -3 -3 -3 -3 -2 -2 -2 -2 -2 -2 -2 -2 -2 -2 -2 -2 -2 -2 -2 -2 -2 -2 -1
-3 -3 -3 -2 -2 -1 -0 -2 -2 -2 -2 -3 -2 -3 -3 -3 -3 -2 -2 -3 -3 -3 -3 -3 -3 -3 -2 -2 -2 -2 -2 -2 -2 -2 -2 -2 -2 -2 -2 -2 -2 -2 -2 -2
-3 -3 -3 -3 -2 -2 -1 -2 -3 -3 -3 -3 -3 -4 -4 -3 -3 -3 -2 -3 -3 -3 -3 -3 -3 -3 -3 -3 -2 -2 -2 -2 -2 -2 -3 -3 -3 -3 -2 -2 -2 -2 -2 -2
-5 -4 -4 -4 -2 -1 -0 -2 -3 -3 -2 -3 -4 -4 -4 -4 -4 -3 -3 -3 -3 -3 -3 -3 -3 -3 -3 -3 -3 -3 -3 -3 -3 -3 -3 -3 -3 -3 -3 -3 -3 -3 -3 -3
-4 -4 -4 -4 -3 -3 -3 -3 -3 -2 -2 -3 -3 -3 -4 -4 -4 -3 -3 -3 -3 -3 -3 -3 -3 -3 -3 -3 -3 -3 -3 -3 -3 -3 -3 -3 -3 -3 -3 -3 -3 -3 -3 -3
-4 -4 -5 -5 -3 -2 -4 -4 -3 -3 -3 -3 -3 -3 -4 -4 -4 -4 -4 -3 -4 -4 -4 -3 -3 -3 -3 -3 -3 -3 -3 -4 -4 -4 -4 -4 -4 -4 -4 -4 -4 -4 -4 -4
-5 -4 -5 -4 -3 -3 -4 -3 -3 -3 -3 -3 -3 -3 -4 -4 -4 -4 -4 -4 -4 -4 -4 -4 -4 -4 -4 -4 -4 -4 -4 -4 -4 -4 -4 -4 -4 -4 -4 -4 -4 -4 -4 -4
-6 -6 -6 -6 -5 -4 -4 -3 -3 -3 -3 -3 -3 -4 -4 -4 -4 -4 -4 -4 -4 -4 -4 -4 -4 -4 -4 -4 -4 -4 -4 -4 -4 -4 -4 -4 -4 -4 -4 -4 -5 -5 -4 -4
-5 -6 -6 -6 -6 -5 -3 -3 -3 -3 -3 -3 -3 -4 -4 -4 -4 -4 -4 -5 -5 -4 -4 -4 -4 -4 -4 -4 -4 -5 -5 -5 -5 -5 -5 -5 -5 -5 -5 -5 -5 -5 -5 -5
-6 -6 -5 -4 -4 -5 -3 -3 -3 -3 -3 -4 -4 -4 -4 -4 -4 -5 -5 -5 -5 -5 -4 -5 -5 -5 -5 -5 -5 -5 -5 -5 -5 -5 -5 -5 -5 -5 -5 -5 -5 -5 -5 -5
Wind_Speed
3 3 1 4 5 3 2 3 5 5 3 2 5 9 9 4 3 3 3 3 3 3 3 3 3 3 3 3 3 2 3 2 2 1 0 0 1 1 2 3 4 3 4 4
4 1 4 3 3 2 2 3 4 5 2 2 5 8 7 4 4 5 5 5 4 2 3 4 4 3 3 2 2 2 1 1 1 0 0 0 1 1 1 2 4 4 4 3
3 2 2 1 1 1 3 4 4 5 5 2 3 6 5 3 2 1 2 3 2 2 2 3 3 3 3 2 1 0 0 1 1 1 1 2 2 1 2 2 2 3 3 3
1 3 1 1 1 2 4 3 3 3 2 4 0 5 6 3 3 2 3 3 3 2 1 2 3 3 3 2 2 2 1 1 1 1 2 2 1 0 1 1 2 3 3 2
1 1 1 1 2 2 3 1 1 2 2 3 2 3 7 2 3 4 4 4 3 2 1 2 2 2 2 2 2 2 2 1 1 1 1 1 0 1 1 1 2 2 2 2
2 1 1 2 1 2 1 3 2 2 1 4 5 4 6 3 4 3 3 4 3 2 2 2 3 3 3 3 3 2 2 2 1 0 0 0 1 1 1 2 2 2 2 2
3 2 1 0 1 2 3 3 3 4 2 6 2 4 7 5 3 4 4 3 2 1 2 3 4 5 4 4 4 3 2 2 2 1 1 1 1 1 2 2 2 2 2 2
1 4 2 0 1 1 1 4 4 3 4 5 3 6 6 3 3 2 1 1 1 1 2 2 2 3 3 3 3 3 3 3 2 1 2 1 1 1 2 2 2 3 3 3
3 4 2 1 0 3 2 2 3 3 1 4 5 6 7 3 4 4 3 2 2 2 2 2 3 3 3 3 3 3 3 4 3 2 2 2 2 2 3 3 3 3 3 3
3 3 3 2 2 2 2 4 3 2 1 4 6 5 5 4 4 4 4 4 3 3 3 3 4 4 4 3 3 3 3 4 3 2 2 2 2 3 3 3 3 3 4 3
2 2 3 2 2 3 2 2 2 2 3 3 4 6 3 4 4 4 4 4 3 3 3 4 4 4 4 3 3 3 4 4 3 3 3 3 3 3 3 3 3 3 3 3
2 2 3 5 3 1 2 3 4 3 4 4 4 7 2 2 2 3 3 4 4 3 3 3 3 3 3 3 3 3 4 4 4 3 3 3 3 2 3 3 3 3 3 3
4 3 1 4 3 2 1 2 2 2 2 4 5 8 2 2 3 3 4 5 5 4 4 4 3 4 4 4 4 4 4 4 4 3 2 2 3 3 3 3 4 3 3 3
3 3 5 7 6 3 4 4 3 3 4 6 9 11 9 7 6 5 5 5 5 5 4 4 4 4 5 4 4 4 4 4 3 3 3 2 3 3 3 3 3 3 3 2
3 3 4 6 5 4 6 7 6 8 8 9 10 11 12 8 6 5 4 5 5 6 6 5 5 5 5 4 4 4 4 3 3 3 3 3 3 3 3 3 3 3 3 2
2 2 1 5 4 4 7 9 9 9 8 9 10 12 7 4 3 4 4 5 6 7 7 7 6 6 5 5 5 4 4 3 3 3 3 3 3 3 3 3 3 3 3 2
2 3 2 4 4 4 7 8 8 6 6 7 9 9 4 5 6 5 5 5 6 7 7 7 7 6 6 6 5 4 4 3 2 2 2 2 2 2 3 3 3 2 2 2
4 3 2 1 2 6 7 2 4 5 7 7 7 6 5 5 7 6 5 5 6 6 7 7 6 6 6 5 4 4 3 2 2 2 2 2 2 3 3 3 2 2 2 1
3 5 2 2 3 8 7 3 3 4 6 5 5 5 5 5 5 5 3 3 5 6 7 6 6 5 5 4 3 2 2 1 2 2 2 3 3 3 3 3 3 2 2 2
2 2 3 2 3 6 6 2 1 1 5 3 3 5 5 4 5 6 4 5 6 7 6 6 5 4 4 3 2 1 1 1 2 3 3 3 2 3 3 3 2 2 1 1
1 1 3 4 5 8 5 2 2 2 5 3 3 5 4 5 6 7 7 6 6 6 6 5 4 4 3 2 1 1 1 2 3 3 2 2 2 3 2 2 2 1 1 1
5 4 5 4 4 7 2 2 4 5 3 3 4 4 5 7 7 7 6 6 6 6 6 5 4 4 3 1 0 1 2 3 2 2 2 2 2 2 2 2 2 1 0 1
6 6 5 7 7 4 3 5 4 3 4 4 4 5 5 6 6 7 6 6 5 5 5 4 3 3 3 2 1 2 2 2 2 2 2 2 3 2 2 1 1 1 1 1
4 3 3 5 7 6 5 5 5 4 4 5 5 5 5 6 6 6 6 5 5 5 5 4 3 3 4 3 2 2 2 1 1 1 2 2 2 3 3 2 1 1 1 1
5 4 3 6 7 6 5 5 6 5 4 4 5 5 5 5 6 5 5 5 5 5 4 3 2 3 4 4 3 2 2 1 1 1 2 2 2 2 2 2 2 1 1 1
5 6 6 7 6 5 6 5 4 4 5 5 5 5 4 4 5 5 5 5 4 5 3 2 3 3 4 3 3 2 1 0 0 1 1 1 1 1 2 2 3 4 3 4
Wind_Direction
25 73 198 223 209 212 195 221 266 271 295 287 258 271 279 266 239 248 257 261 274 287 307 350 10 18 38 51 61 66 69 54 63 63 97 49 357 359 18 25 21 32 43 48
43 284 253 226 200 177 202 249 268 292 325 280 276 277 272 259 233 230 236 248 255 292 341 355 7 20 35 38 47 60 75 74 67 51 198 215 243 305 328 12 15 18 29 36
174 258 276 172 171 212 240 222 245 275 327 343 316 293 268 271 238 236 252 250 256 254 291 333 355 4 19 22 359 346 60 77 43 35 63 55 41 11 6 358 353 3 14 22
233 301 287 182 219 196 256 241 241 263 300 288 279 285 276 265 270 259 268 270 277 289 314 335 349 355 354 344 345 337 0 51 34 60 85 105 113 273 282 301 311 339 0 8
265 319 16 228 244 187 228 292 259 254 217 283 252 241 282 294 267 258 260 263 272 285 300 327 339 336 339 350 1 347 349 6 16 45 111 119 90 258 293 325 326 331 348 353
255 276 210 223 242 171 187 32 28 38 96 265 240 210 276 249 244 264 264 269 274 296 336 353 2 5 360 4 10 4 351 342 349 341 269 170 231 274 325 326 318 320 325 329
323 307 320 23 56 40 78 73 11 350 329 258 266 221 255 254 247 239 250 264 278 312 359 3 6 3 356 357 357 351 344 332 328 315 295 273 253 245 251 270 276 291 304 302
275 289 285 22 154 185 181 146 162 231 252 285 297 244 259 275 294 298 282 293 20 357 338 337 339 345 341 339 345 346 328 315 307 303 303 303 285 270 269 272 269 269 270 273
197 260 329 4 20 138 138 179 166 153 261 278 270 282 297 316 339 350 354 8 337 319 311 313 320 331 331 320 320 315 314 314 310 306 307 296 290 278 274 280 281 279 278 284
160 262 296 325 45 28 150 149 107 133 220 273 285 271 261 285 303 316 324 321 309 316 320 319 319 321 320 312 310 319 318 308 306 309 297 297 290 284 283 284 283 284 285 288
145 192 308 1 196 215 131 126 144 162 194 210 276 271 241 232 252 272 278 289 295 293 296 302 307 311 318 324 330 330 329 323 318 314 310 310 302 300 298 290 290 288 286 289
147 143 261 262 264 239 185 190 167 188 239 216 243 272 266 238 272 277 288 307 308 302 301 298 301 312 320 321 325 326 326 323 319 318 322 321 322 323 315 306 303 298 290 292
142 131 351 337 338 360 254 218 193 169 163 208 235 268 295 319 322 319 309 316 319 317 318 313 306 302 305 307 310 315 317 318 324 326 327 329 332 325 316 308 305 305 300 301
136 154 192 223 245 238 259 255 224 189 220 241 241 263 285 291 299 307 310 312 312 310 307 302 300 296 295 295 297 304 313 321 329 328 321 313 312 307 305 306 306 306 304 299
123 193 231 257 270 254 253 255 234 225 229 233 254 263 276 279 282 292 300 309 314 314 312 305 302 297 296 295 294 300 308 315 321 317 311 303 307 308 310 308 305 310 311 300
111 177 235 279 268 261 269 262 248 245 244 244 262 272 275 288 302 303 304 303 302 305 306 306 305 302 296 290 287 290 294 299 303 300 299 308 316 317 313 308 306 312 311 307
158 160 194 267 295 319 275 246 227 233 233 224 245 263 293 302 298 289 291 291 294 297 300 300 298 293 289 284 283 278 271 287 297 300 306 319 320 312 307 305 308 308 304 309
161 158 178 275 11 252 252 233 209 234 258 240 249 267 279 280 289 289 277 275 289 296 298 298 297 298 297 291 290 287 279 280 297 306 314 322 321 314 312 313 311 309 301 299
191 165 162 170 252 276 284 252 193 215 272 246 243 279 302 311 316 298 264 265 279 287 290 289 288 291 295 293 290 289 295 310 316 311 311 315 314 309 309 304 303 309 319 316
62 131 154 171 228 255 266 254 208 139 284 251 237 277 296 321 306 292 305 304 300 299 298 297 298 298 298 296 300 282 300 309 303 304 306 309 308 304 300 293 296 307 308 308
110 135 185 207 240 263 264 267 106 171 268 288 271 272 269 263 264 290 302 302 301 303 307 310 308 301 289 286 279 278 290 297 308 319 320 324 320 310 306 315 310 304 316 339
186 184 197 180 222 258 242 142 191 234 282 292 288 280 273 277 292 302 302 305 312 318 321 323 321 314 308 305 287 290 293 309 328 337 343 337 328 327 341 355 341 333 357 353
207 200 196 202 225 259 226 222 248 257 272 283 282 285 279 284 291 300 302 307 310 315 318 320 315 322 332 338 330 286 300 322 338 354 354 344 341 343 347 346 337 353 18 4
244 197 201 254 265 262 259 262 271 262 260 278 282 283 280 281 289 298 301 307 311 315 317 320 330 340 333 336 339 304 307 320 342 347 342 345 352 352 354 352 347 359 1 343
229 180 213 256 273 293 276 247 256 272 277 285 292 283 273 276 286 289 296 302 305 309 313 317 321 317 318 329 330 326 325 344 348 339 336 344 348 349 347 346 346 340 327 315
207 194 203 242 242 231 262 264 259 265 271 278 286 292 290 275 279 289 293 295 296 300 305 319 317 314 316 324 322 322 317 273 190 329 335 336 343 345 348 348 347 353 343 337
Height
1493 1497 1499 1498 1498 1498 1500 1502 1502 1499 1497 1498 1496 1494 1491 1490 1491 1490 1490 1490 1490 1489 1490 1489 1489 1489 1489 1489 1489 1490 1490 1490 1491 1491 1490 1490 1491 1491 1491 1491 1491 1491 1492 1492
1498 1499 1497 1496 1497 1499 1501 1502 1502 1498 1496 1497 1497 1494 1490 1489 1488 1488 1488 1488 1488 1487 1487 1487 1487 1487 1487 1487 1487 1488 1488 1488 1488 1488 1488 1489 1489 1489 1489 1489 1489 1489 1489 1490
1498 1498 1496 1496 1497 1499 1500 1501 1501 1500 1498 1497 1498 1493 1489 1487 1487 1487 1487 1486 1486 1486 1485 1485 1485 1485 1485 1485 1486 1486 1486 1486 1486 1487 1486 1486 1487 1487 1487 1487 1487 1487 1487 1487
1499 1497 1496 1496 1497 1498 1499 1497 1498 1499 1502 1503 1501 1499 1489 1487 1486 1485 1485 1484 1484 1484 1484 1484 1484 1483 1483 1484 1484 1484 1484 1484 1484 1484 1484 1484 1484 1484 1484 1484 1485 1485 1485 1485
1498 1497 1497 1496 1496 1497 1498 1497 1499 1499 1501 1505 1502 1503 1490 1488 1486 1484 1483 1483 1483 1483 1483 1483 1483 1482 1482 1482 1482 1482 1482 1482 1482 1482 1483 1482 1482 1482 1482 1482 1482 1482 1482 1482
1497 1497 1496 1496 1495 1496 1497 1499 1501 1503 1505 1505 1499 1502 1492 1489 1485 1482 1481 1481 1481 1481 1481 1481 1481 1481 1481 1480 1481 1480 1480 1480 1480 1480 1480 1480 1480 1480 1480 1479 1479 1479 1479 1479
1499 1497 1496 1495 1496 1496 1498 1504 1510 1510 1513 1506 1500 1498 1491 1483 1481 1480 1479 1479 1479 1480 1480 1480 1480 1479 1479 1479 1479 1478 1478 1478 1478 1478 1478 1478 1477 1477 1477 1477 1476 1476 1476 1476
1503 1502 1497 1496 1496 1498 1499 1502 1511 1512 1514 1507 1502 1497 1487 1481 1480 1478 1478 1478 1478 1478 1479 1478 1478 1478 1478 1478 1477 1476 1476 1476 1475 1475 1475 1475 1475 1475 1474 1474 1474 1473 1473 1473
1504 1501 1497 1496 1496 1497 1500 1503 1504 1513 1516 1514 1503 1496 1486 1480 1479 1478 1477 1477 1477 1477 1478 1477 1477 1477 1476 1475 1475 1474 1473 1473 1473 1472 1472 1472 1472 1472 1471 1471 1471 1470 1470 1470
1503 1505 1499 1497 1496 1497 1499 1502 1508 1512 1512 1508 1500 1496 1488 1482 1480 1478 1477 1477 1476 1476 1476 1476 1475 1475 1474 1473 1473 1472 1471 1471 1470 1470 1469 1469 1469 1468 1468 1468 1468 1467 1467 1467
1502 1506 1503 1501 1500 1500 1501 1503 1505 1510 1510 1508 1505 1491 1481 1480 1478 1478 1477 1476 1475 1475 1475 1474 1473 1473 1472 1471 1471 1470 1469 1468 1467 1467 1466 1466 1465 1465 1465 1465 1464 1464 1464 1464
1502 1507 1508 1504 1499 1498 1498 1500 1504 1507 1509 1510 1505 1492 1478 1478 1477 1477 1476 1475 1474 1473 1473 1472 1471 1470 1470 1469 1468 1467 1466 1465 1464 1464 1463 1463 1462 1462 1462 1462 1461 1461 1461 1460
1501 1507 1508 1504 1504 1502 1500 1500 1501 1504 1508 1510 1505 1490 1478 1477 1476 1476 1475 1474 1473 1471 1470 1470 1469 1468 1467 1466 1465 1465 1464 1463 1462 1461 1461 1460 1460 1459 1459 1459 1459 1458 1458 1457
1498 1505 1506 1503 1500 1500 1501 1500 1501 1502 1503 1502 1495 1485 1478 1476 1475 1474 1474 1472 1471 1470 1469 1467 1466 1465 1464 1463 1463 1462 1461 1461 1460 1459 1458 1457 1457 1457 1457 1456 1456 1456 1455 1454
1498 1503 1504 1502 1499 1499 1498 1496 1497 1497 1494 1493 1485 1483 1476 1475 1474 1473 1472 1470 1469 1468 1466 1465 1463 1462 1461 1460 1459 1459 1458 1458 1457 1457 1455 1454 1454 1454 1454 1454 1453 1453 1452 1452
1499 1503 1504 1501 1497 1498 1496 1492 1491 1490 1488 1487 1483 1479 1474 1473 1473 1471 1469 1468 1467 1465 1464 1462 1460 1459 1458 1457 1456 1455 1455 1455 1454 1453 1453 1452 1451 1451 1451 1451 1450 1450 1449 1449
1500 1502 1502 1499 1499 1496 1493 1486 1485 1485 1483 1483 1481 1476 1473 1472 1471 1469 1467 1466 1464 1463 1461 1459 1457 1456 1455 1454 1453 1452 1452 1452 1451 1450 1450 1449 1449 1448 1448 1448 1447 1447 1446 1446
1499 1501 1502 1502 1501 1495 1483 1481 1481 1481 1479 1478 1476 1473 1472 1471 1468 1466 1465 1464 1462 1461 1458 1457 1455 1453 1452 1451 1451 1450 1450 1449 1448 1448 1448 1447 1446 1446 1445 1445 1444 1444 1444 1443
1494 1498 1502 1504 1501 1493 1482 1479 1480 1480 1477 1474 1474 1472 1471 1469 1466 1463 1463 1462 1461 1459 1456 1454 1453 1451 1450 1449 1448 1447 1447 1447 1446 1445 1445 1445 1444 1444 1443 1442 1442 1442 1442 1441
1495 1496 1502 1504 1498 1490 1478 1477 1476 1478 1476 1471 1471 1470 1469 1468 1467 1462 1460 1459 1457 1456 1454 1451 1449 1448 1447 1446 1446 1445 1445 1444 1444 1443 1443 1443 1442 1442 1441 1440 1440 1440 1440 1440
1497 1499 1501 1501 1499 1487 1477 1475 1476 1480 1474 1469 1468 1467 1467 1466 1464 1461 1458 1456 1454 1452 1450 1448 1446 1445 1444 1444 1443 1443 1443 1442 1442 1441 1441 1441 1440 1440 1439 1438 1438 1438 1438 1438
1493 1496 1498 1499 1496 1484 1475 1475 1476 1473 1468 1467 1466 1465 1464 1462 1460 1458 1455 1453 1451 1449 1447 1445 1444 1443 1442 1442 1441 1441 1440 1440 1440 1440 1440 1439 1439 1438 1437 1437 1437 1437 1436 1436
1489 1487 1487 1487 1481 1474 1471 1470 1469 1469 1467 1465 1464 1463 1461 1459 1457 1455 1453 1451 1449 1447 1445 1443 1442 1441 1441 1440 1439 1439 1439 1439 1438 1438 1438 1437 1437 1436 1436 1436 1435 1435 1435 1435
1483 1482 1483 1481 1473 1470 1469 1468 1467 1466 1465 1464 1462 1460 1459 1457 1454 1453 1450 1448 1446 1445 1443 1442 1440 1439 1439 1438 1438 1438 1438 1437 1437 1436 1436 1436 1435 1435 1435 1434 1434 1434 1434 1434
1477 1479 1480 1477 1471 1468 1465 1464 1464 1463 1462 1461 1459 1458 1456 1455 1452 1450 1448 1446 1444 1443 1441 1440 1439 1438 1438 1437 1436 1436 1436 1436 1435 1435 1435 1434 1434 1434 1433 1433 1433 1433 1433 1433
1472 1473 1474 1469 1465 1465 1463 1461 1461 1460 1459 1458 1456 1454 1453 1452 1450 1448 1446 1444 1443 1441 1440 1439 1438 1437 1436 1436 1435 1435 1434 1434 1434 1433 1433 1433 1433 1433 1432 1432 1432 1432 1432 1432